EW8203 Weather Reports


Display with metric or nautical units.
time (UTC)temp
F
wind
direction
speed
MPH
gust
MPH
rain 1hr
in
rain 24hr
in
rain mn
in
humidity
%
barometer
mb
20200923203133 74 106 3.0 11.0 0.00 0.00 0.00 52 1015.9
20200923201633 73 131 2.0 9.0 0.00 0.00 0.00 53 1016.1
20200923200158 74 128 2.0 9.0 0.00 0.00 0.00 54 1016.3
20200923194633 74 157 1.0 7.0 0.00 0.00 0.00 54 1016.3
20200923193055 74 87 1.0 10.0 0.00 0.00 0.00 55 1016.6
20200923191632 74 143 3.0 10.0 0.00 0.00 0.00 54 1016.6
20200923190201 76 185 1.0 8.0 0.00 0.00 0.00 53 1016.8
20200923184558 75 139 1.0 11.0 0.00 0.00 0.00 52 1016.9
20200923183218 76 119 0.0 3.0 0.00 0.00 0.00 52 1017.2
20200923181657 77 176 1.0 5.0 0.00 0.00 0.00 50 1017.3
20200923180142 77 274 1.0 6.0 0.00 0.00 0.00 50 1017.2
20200923174608 77 246 0.0 3.0 0.00 0.00 0.00 51 1017.5
20200923173149 75 290 0.0 2.0 0.00 0.00 0.00 53 1017.7
20200923171713 74 302 0.0 4.0 0.00 0.00 0.00 54 1017.8
20200923170109 73 232 0.0 2.0 0.00 0.00 0.00 56 1017.8
20200923164552 71 162 0.0 2.0 0.00 0.00 0.00 56 1017.9
20200923163124 70 126 1.0 3.0 0.00 0.00 0.00 57 1018.2
20200923161535 69 181 0.0 3.0 0.00 0.00 0.00 57 1018.3
20200923160035 69 168 0.0 2.0 0.00 0.00 0.00 61 1018.3
20200923154513 68 201 0.0 3.0 0.00 0.00 0.00 63 1018.6
20200923153023 67 203 0.0 3.0 0.00 0.00 0.00 66 1018.8
20200923151521 65 164 1.0 5.0 0.00 0.00 0.00 72 1019.1
20200923150300 64 181 0.0 5.0 0.00 0.00 0.00 78 1018.9
20200923144707 63 134 0.0 4.0 0.00 0.00 0.00 82 1019.1
20200923143118 62 162 1.0 3.0 0.00 0.00 0.00 83 1019.0
20200923141622 61 185 0.0 2.0 0.00 0.00 0.00 83 1018.9
20200923140140 60 195 0.0 0.0 0.00 0.00 0.00 84 1018.6
20200923134640 60 195 0.0 0.0 0.00 0.00 0.00 84 1018.5
20200923133126 59 196 0.0 1.0 0.00 0.00 0.00 85 1018.5
20200923131636 59 200 0.0 3.0 0.00 0.00 0.00 85 1018.5
20200923130106 58 179 0.0 3.0 0.00 0.00 0.00 85 1018.4
20200923124615 58 148 0.0 2.0 0.00 0.00 0.00 85 1018.3
20200923123109 58 149 0.0 1.0 0.00 0.00 0.00 85 1018.3
20200923121549 58 150 0.0 0.0 0.00 0.00 0.00 85 1018.2
20200923120157 58 150 0.0 0.0 0.00 0.00 0.00 85 1018.1
20200923114632 58 151 0.0 3.0 0.00 0.00 0.00 85 1018.1
20200923113057 58 161 0.0 2.0 0.00 0.00 0.00 85 1018.2
20200923111625 58 157 0.0 1.0 0.00 0.00 0.00 85 1018.1
20200923110114 58 151 0.0 1.0 0.00 0.00 0.00 85 1018.3
20200923104640 58 178 0.0 2.0 0.00 0.00 0.00 85 1018.3
20200923103117 58 171 0.0 2.0 0.00 0.00 0.00 85 1018.1
20200923101556 58 157 1.0 4.0 0.00 0.00 0.00 85 1017.9
20200923100133 58 161 0.0 3.0 0.00 0.00 0.00 84 1017.9
20200923094636 58 182 0.0 2.0 0.00 0.00 0.00 84 1017.9
20200923093102 58 202 0.0 3.0 0.00 0.00 0.00 84 1017.9
20200923091556 58 148 0.0 4.0 0.00 0.00 0.00 84 1018.0
20200923090117 58 150 0.0 2.0 0.00 0.00 0.00 85 1017.9
20200923084610 58 151 0.0 2.0 0.00 0.00 0.00 85 1018.0
20200923083108 58 156 0.0 2.0 0.00 0.00 0.00 84 1017.9
20200923081606 58 175 0.0 0.0 0.00 0.00 0.00 84 1018.1
20200923080144 59 174 0.0 0.0 0.00 0.00 0.00 84 1018.1
20200923074551 59 171 0.0 0.0 0.00 0.00 0.00 84 1018.3
20200923073049 59 169 0.0 3.0 0.00 0.00 0.00 84 1018.3
20200923071532 59 174 0.0 3.0 0.00 0.00 0.00 84 1018.4
20200923070049 59 175 0.0 2.0 0.00 0.00 0.00 84 1018.5
20200923064537 59 149 0.0 2.0 0.00 0.00 0.00 84 1018.5
20200923063031 59 150 0.0 5.0 0.00 0.00 0.00 84 1018.4
20200923061526 59 188 0.0 2.0 0.00 0.00 0.00 84 1018.6
20200923060041 59 191 0.0 3.0 0.00 0.00 0.00 84 1018.4
20200923054528 59 156 1.0 3.0 0.00 0.00 0.00 84 1018.4
20200923053021 59 148 1.0 6.0 0.00 0.00 0.00 84 1018.5
20200923051533 59 155 1.0 5.0 0.00 0.00 0.00 84 1018.7
20200923050025 60 126 1.0 4.0 0.00 0.00 0.00 84 1018.7
20200923044555 60 113 0.0 2.0 0.00 0.00 0.00 84 1018.7
20200923043042 61 123 0.0 3.0 0.00 0.00 0.00 83 1018.9
20200923041518 61 109 1.0 4.0 0.00 0.00 0.00 83 1018.9
20200923040021 61 153 2.0 5.0 0.00 0.00 0.00 83 1018.9
20200923034549 61 163 1.0 4.0 0.00 0.00 0.00 82 1018.9
20200923033019 62 144 2.0 9.0 0.00 0.00 0.00 82 1019.0
20200923031513 62 171 1.0 7.0 0.00 0.00 0.00 81 1018.8
20200923030019 62 146 1.0 5.0 0.00 0.00 0.00 81 1018.8
20200923024534 63 161 2.0 5.0 0.00 0.00 0.00 80 1018.9
20200923023019 63 159 1.0 7.0 0.00 0.00 0.00 80 1018.9
20200923021519 63 148 2.0 7.0 0.00 0.00 0.00 80 1019.0
20200923020047 63 141 2.0 5.0 0.00 0.00 0.00 79 1019.1
20200923014521 64 122 1.0 5.0 0.00 0.00 0.00 78 1019.2
20200923013019 64 157 1.0 7.0 0.00 0.00 0.00 77 1019.2
20200923011639 65 117 3.0 7.0 0.00 0.00 0.00 76 1019.1
20200923010216 65 152 2.0 7.0 0.00 0.00 0.00 75 1019.0
20200923003140 66 138 1.0 5.0 0.00 0.00 0.00 73 1018.7
20200923001706 67 137 0.0 5.0 0.00 0.00 0.00 72 1018.7
20200923000201 67 146 1.0 6.0 0.00 0.00 0.00 71 1018.8
20200922234616 68 132 1.0 3.0 0.00 0.00 0.00 68 1018.9
20200922233128 69 151 1.0 4.0 0.00 0.00 0.00 64 1019.0
20200922231619 69 121 1.0 4.0 0.00 0.00 0.00 60 1018.9
20200922230136 70 153 1.0 4.0 0.00 0.00 0.00 57 1018.9
20200922224707 70 166 1.0 7.0 0.00 0.00 0.00 57 1018.9
20200922223134 71 153 2.0 7.0 0.00 0.00 0.00 57 1018.8
20200922221555 71 137 2.0 7.0 0.00 0.00 0.00 58 1018.9
20200922220202 71 148 3.0 8.0 0.00 0.00 0.00 57 1018.9
20200922214739 72 142 2.0 7.0 0.00 0.00 0.00 56 1019.1
20200922213122 72 129 2.0 6.0 0.00 0.00 0.00 53 1019.2
20200922211643 73 164 2.0 6.0 0.00 0.00 0.00 52 1019.2
20200922210117 73 188 1.0 7.0 0.00 0.00 0.00 52 1019.4
20200922204617 72 102 1.0 5.0 0.00 0.00 0.00 52 1019.4